Погода в Хвалынске

Погода в Хвалынске : погода сейчас, прогноз погоды и архив. Всё, что Вы хотите узнать о погоде в Хвалынске!

Поиск расширенной информации на нашем сайте:

Другие новости

Новости СМИ2

Главная страница сайта

Новости сайта

03.07.2017

Напоминаем, что на нашем специализированном сайте Метеоцентр.Азия вы можете получить высокодетализированные автоматические прогнозы погоды по пунктам России, СНГ и мира в авиационном формате (включающие направление и скорость ветра, видимость, явления погоды, количество и форму облачности, нижнюю и верхнюю границу облачности).

Рекомендуем: Подшипники роликовые в кахастане: покупка роликовых подшипников podshipnik-rti.kz.

Погода в Хвалынске - сегодня

Время (UTC), дата Ветер
(°,м/с) 
Видим.   Явления Облачность Т
(°С)
Тd
(°С)
f(%) Тe
(°С)
Pmin
(гПа)
dP
(гПа)
Po
(мм)
O2
(г/м3)
Тmin Tmax R s Состояние
почвы
18 17.11.17 230 (ЮЗ) 18000 м    10/10 1080 м 
[Sc]
+2.4 -1.8 74 +3  1023  0.7  761  304           
21 17.11.17 240 (ЮЗ) 19000 м    10/10 840 м 
[Sc]
+2.3 -1.1 78 +2  1023.4  0.3  761  304           
00 18.11.17 240 (ЮЗ) 19000 м    10/10 840 м 
[Sc]
+1.7 -2 76 +1  1023.3  761  305           
03 18.11.17 210 (ЮЗ) 22000 м    4/0 средняя 
[Ac trans]
+0.5 -1.9 84 1022.5  -0.8  761  306  +0         
06 18.11.17 210 (ЮЗ) 20000 м    10/0 верхняя 
[Ci sp]
+1.6 -1.1 82 1022.4  0.1  761  305           
09 18.11.17 240 (ЮЗ) 3{10}  20000 м    10/3 1000 м верхняя 
[Sc|Ci sp]
+2.7 -1.1 76 +1  1022.9  0.5  761  304           
12 18.11.17 230 (ЮЗ) 20000 м    10/0 средняя, верхняя 
[Ac As|Ci sp]
+2.5 -1.4 75 +1  1022.8  0.1  761  304           
15 18.11.17 190 (Ю) 17000 м    10/0 средняя 
[Ac und]
+1.2 -1.2 84 +1  1023  0.1  761  305    +3.6       
18 18.11.17 150 (ЮВ) 16000 м    4/0 средняя 
[Ac As]
+0.6 -0.2 94 +1  1023.1  0.1  761  306           
21 18.11.17 200 (Ю) 17000 м    ясно 
-0.6 -1.8 92 1023.3  0.1  761  308           
00 19.11.17 160 (Ю) 15000 м    ясно 
-0.1 -1.3 92 +1  1023.1  -0.2  761  307           
03 19.11.17 170 (Ю) 12000 м    9/9 540 м 
[Sc]
-0.7 -1.5 94 1022.3  -0.8  760  307  -1.4         
06 19.11.17 180 (Ю) 20000 м    10/10 960 м 
[Sc]
+0.2 -0.3 96 -1  1022.1  -0.2  760  306           
09 19.11.17 160 (Ю) 20000 м    10/10 210 м 
[St]
+0.7 -0.6 91 -2  1021  -1  760  305           
12 19.11.17 160 (Ю) 10 км    10/10 330 м 
[St]
+0.9 +0.3 96 -1  1019.9  -1.1  759  305           
15 19.11.17 160 (Ю) 15000 м    10/10 300 м 
[St]
+0.5 -0.9 90 -2  1019.4  -0.5  758  305    +1.6       
18 19.11.17 170 (Ю) 18000 м    10/10 300 м 
[St]
+0.3 -1 91 -3  1018.1  -1.3  757  305           
21 19.11.17 170 (Ю) 17000 м    10/10 270 м 
[St]
+0.8 -0.5 91 -2  1017.5  -0.6  757  304           
00 20.11.17 170 (Ю) 4800 м  слаб. дождь  10/10 240 м 
[Frnb|Ns]
+1.3 +0.8 96 1016.9  -0.6  756  303           
03 20.11.17 160 (Ю) 11000 м  слаб. морось{дождь}  10/10 210 м 
[St]
+1.6 +1.2 97 -1  1016  -0.8  756  303  +0.3    0.5     
06 20.11.17 160 (Ю) 2000 м  слаб. морось{дождь}  10/10 180 м 
[St]
+1.9 +1.5 97 1016  756  302           
09 20.11.17 160 (Ю) 20000 м  {морось}  10/10 420 м 
[St]
+2.9 +2.3 96 +2  1015.9  756  301           
12 20.11.17 160 (Ю) 20000 м  {морось}  10/10 870 м 
[Sc]
+3.9 +3.3 96 +5  1015.4  -0.5  755  300           
15 20.11.17 110 (В) 20000 м    10/10 800 м 
[Sc]
+3.3 +2.3 93 +3  1015.5  0.1  755  300    +4.1  0.4     
18 20.11.17 170 (Ю) 22000 м    ясно 
+1.3 +0.9 97 1014.4  -1.2  755  302           
Время (UTC), дата Ветер
(°,м/с) 
Видим.   Явления Облачность Т
(°С)
Тd
(°С)
f(%) Тe
(°С)
Pmin
(гПа)
dP
(гПа)
Po
(мм)
O2
(г/м3)
Тmin Tmax R s Состояние
почвы

Для получения пояснительной информации подведите курсор к названию столбца.

ПОГОДА в Хвалынске - архив

Всё, что Вы хотите узнать о погоде в Хвалынске - удобно и подробно!

Выберите нужную дату (начиная с 1 января 2015* года) и нажмите кнопку "Найти".
Будут отображены архивные сводки погоды по пункту Хвалынск, начиная с указанной даты.


Отображать данные в формате CSV (для использования в таблицах Excel)


Внимание! Наш архив погоды предназначен исключительно для личного некоммерческого использования в познавательных целях. Если Вам необходимы официальные справки о состоянии погоды (для производственных, юридических, коммерческих и т.п. целей), обращайтесь в органы Росгидромета.

*Примечание: данная дата относится к архиву по метеостанциям СССР (Россия, СНГ, Балтия).
Архив по метеостанциям Зарубежной Европы и Азии (кроме Китая) хранится 10 дней, по другим регионам земного шара (Китай, Африка, Америка, Австралия, Океания) - 1 день.

Хвалынск - район местоположения метеостанции


Название, широта, долгота, высота метеостанции:
Хвалынск 52.5°ш. 48.1°д. 88 м над ур. моря [Российская Федерация]

Дополнительная информация

В oтличие oт бoльшинства пoгoдных сайтoв мы публикуем пoдрoбную метеoинфoрмацию в детальнoм прoфессиoнальнoм фoрмате.

Характеристики температуры и влажнoсти вoздуха измеряются на высoте 2 м в тени вдали oт зданий и деревьев.
Скoрoсть ветра измеряется на высoте 10 м (на урoвне рoста челoвека скoрoсть ветра ниже в 1.5-2 раза). Если метеoстанция нахoдится в гoрoде или в лесу, тo скoрoсть ветра занижена на 2-4 м/с пo сравнению с oткрытым местoм. Скoрoсть ветра над акватoриями крупных рек и oзёр, а также на вершинах хoлмoв на 2-5 м/с выше, чем в oбычных услoвиях.
Атмoсфернoе давление в разных тoчках местнoсти мoжет значительнo oтличаться oт давления на метеoстанции, в зависимoсти oт услoвий рельефа (при пoдъёме на 10 м давление пoнижается примернo на 1 мм рт.ст.).